MOZHAETS 4 (RS22)

Last updated on Mon Jun 22 2026 00:03:18 GMT+0000 (Coordinated Universal Time)

1 27939U 03042A 26172.56395240 .00000799 00000+0 13137-3 0 9993 2 27939 98.3474 357.0459 0009954 253.7036 197.9632 14.73473438216193
UTC large
Height (km)
Speed (km/s)
/
Latitude / Longitude
Inclination (degrees)
Orbital Period (minutes)
Azimuth
Elevation
Range (km)
Doppler Factor

Next 0 passes for location: London (51.5072 / 0.1276)

No passes found over London.
MOZHAETS 4 (RS22)